Year,Month,Day,Hour,Minute,Value (Times are PST for windspeed in km/hr)
2015,01,18,00,00,3.90
2015,01,18,00,01,3.60
2015,01,18,00,02,4.30
2015,01,18,00,03,3.20
2015,01,18,00,04,2.50
2015,01,18,00,05,4.80
2015,01,18,00,06,8.00
2015,01,18,00,07,5.70
2015,01,18,00,08,4.60
2015,01,18,00,09,4.90
2015,01,18,00,10,8.30
2015,01,18,00,11,7.30
2015,01,18,00,12,5.90
2015,01,18,00,13,7.10
2015,01,18,00,14,4.20
2015,01,18,00,15,3.20
2015,01,18,00,16,6.70
2015,01,18,00,17,8.50
2015,01,18,00,18,5.30
2015,01,18,00,19,4.80
2015,01,18,00,20,1.20
2015,01,18,00,21,0.10
2015,01,18,00,22,0.00
2015,01,18,00,23,0.20
2015,01,18,00,24,1.10
2015,01,18,00,25,0.10
2015,01,18,00,26,0.00
2015,01,18,00,27,0.00
2015,01,18,00,28,0.00
2015,01,18,00,29,0.00
2015,01,18,00,30,0.00
2015,01,18,00,31,0.00
2015,01,18,00,32,2.60
2015,01,18,00,33,1.60
2015,01,18,00,34,5.20
2015,01,18,00,35,5.20
2015,01,18,00,36,2.90
2015,01,18,00,37,0.90
2015,01,18,00,38,2.00
2015,01,18,00,39,6.10
2015,01,18,00,40,8.30
2015,01,18,00,41,6.90
2015,01,18,00,42,5.90
2015,01,18,00,43,8.90
2015,01,18,00,44,8.10
2015,01,18,00,45,5.40
2015,01,18,00,46,5.90
2015,01,18,00,47,5.60
2015,01,18,00,48,5.30
2015,01,18,00,49,7.70
2015,01,18,00,50,9.10
2015,01,18,00,51,7.10
2015,01,18,00,52,10.80
2015,01,18,00,53,10.50
2015,01,18,00,54,7.10
2015,01,18,00,55,7.60
2015,01,18,00,56,10.00
2015,01,18,00,57,4.50
2015,01,18,00,58,3.90
2015,01,18,00,59,5.40
2015,01,18,01,00,5.80
2015,01,18,01,01,7.70
2015,01,18,01,02,5.30
2015,01,18,01,03,8.60
2015,01,18,01,04,6.60
2015,01,18,01,05,5.70
2015,01,18,01,06,6.70
2015,01,18,01,07,3.50
2015,01,18,01,08,1.80
2015,01,18,01,09,1.60
2015,01,18,01,10,0.80
2015,01,18,01,11,0.10
2015,01,18,01,12,0.60
2015,01,18,01,13,0.50
2015,01,18,01,14,5.70
2015,01,18,01,15,3.50
2015,01,18,01,16,2.60
2015,01,18,01,17,5.40
2015,01,18,01,18,5.20
2015,01,18,01,19,4.90
2015,01,18,01,20,6.70
2015,01,18,01,21,7.20
2015,01,18,01,22,9.20
2015,01,18,01,23,9.30
2015,01,18,01,24,8.20
2015,01,18,01,25,8.50
2015,01,18,01,26,9.00
2015,01,18,01,27,10.80
2015,01,18,01,28,10.10
2015,01,18,01,29,7.80
2015,01,18,01,30,11.80
2015,01,18,01,31,9.90
2015,01,18,01,32,10.80
2015,01,18,01,33,13.20
2015,01,18,01,34,8.50
2015,01,18,01,35,10.00
2015,01,18,01,36,9.70
2015,01,18,01,37,7.00
2015,01,18,01,38,9.00
2015,01,18,01,39,6.90
2015,01,18,01,40,7.70
2015,01,18,01,41,6.40
2015,01,18,01,42,7.00
2015,01,18,01,43,6.70
2015,01,18,01,44,4.50
2015,01,18,01,45,14.80
2015,01,18,01,46,14.10
2015,01,18,01,47,18.40
2015,01,18,01,48,14.10
2015,01,18,01,49,13.30
2015,01,18,01,50,19.00
2015,01,18,01,51,13.80
2015,01,18,01,52,18.90
2015,01,18,01,53,14.60
2015,01,18,01,54,13.90
2015,01,18,01,55,17.40
2015,01,18,01,56,16.00
2015,01,18,01,57,25.90
2015,01,18,01,58,17.00
2015,01,18,01,59,22.20
2015,01,18,02,00,20.20
2015,01,18,02,01,15.40
2015,01,18,02,02,21.90
2015,01,18,02,03,15.30
2015,01,18,02,04,22.00
2015,01,18,02,05,22.00
2015,01,18,02,06,20.90
2015,01,18,02,07,17.90
2015,01,18,02,08,20.40
2015,01,18,02,09,13.90
2015,01,18,02,10,25.90
2015,01,18,02,11,20.70
2015,01,18,02,12,16.40
2015,01,18,02,13,18.30
2015,01,18,02,14,22.30
2015,01,18,02,15,22.50
2015,01,18,02,16,19.70
2015,01,18,02,17,21.70
2015,01,18,02,18,12.70
2015,01,18,02,19,14.60
2015,01,18,02,20,24.10
2015,01,18,02,21,20.20
2015,01,18,02,22,25.40
2015,01,18,02,23,17.80
2015,01,18,02,24,20.00
2015,01,18,02,25,17.60
2015,01,18,02,26,24.10
2015,01,18,02,27,17.40
2015,01,18,02,28,27.40
2015,01,18,02,29,23.00
2015,01,18,02,30,14.80
2015,01,18,02,31,16.50
2015,01,18,02,32,23.60
2015,01,18,02,33,13.00
2015,01,18,02,34,22.90
2015,01,18,02,35,26.60
2015,01,18,02,36,20.40
2015,01,18,02,37,21.90
2015,01,18,02,38,20.70
2015,01,18,02,39,14.00
2015,01,18,02,40,17.30
2015,01,18,02,41,16.90
2015,01,18,02,42,11.90
2015,01,18,02,43,15.20
2015,01,18,02,44,21.70
2015,01,18,02,45,16.70
2015,01,18,02,46,23.60
2015,01,18,02,47,19.40
2015,01,18,02,48,21.90
2015,01,18,02,49,18.50
2015,01,18,02,50,14.60
2015,01,18,02,51,15.40
2015,01,18,02,52,27.10
2015,01,18,02,53,16.60
2015,01,18,02,54,11.50
2015,01,18,02,55,19.20
2015,01,18,02,56,10.50
2015,01,18,02,57,19.10
2015,01,18,02,58,13.90
2015,01,18,02,59,9.10
2015,01,18,03,00,11.00
2015,01,18,03,01,15.50
2015,01,18,03,02,15.70
2015,01,18,03,03,20.00
2015,01,18,03,04,14.40
2015,01,18,03,05,14.80
2015,01,18,03,06,9.90
2015,01,18,03,07,17.10
2015,01,18,03,08,14.70
2015,01,18,03,09,18.10
2015,01,18,03,10,10.40
2015,01,18,03,11,15.00
2015,01,18,03,12,17.90
2015,01,18,03,13,13.00
2015,01,18,03,14,14.40
2015,01,18,03,15,13.40
2015,01,18,03,16,16.20
2015,01,18,03,17,14.00
2015,01,18,03,18,17.30
2015,01,18,03,19,12.90
2015,01,18,03,20,11.30
2015,01,18,03,21,13.10
2015,01,18,03,22,10.60
2015,01,18,03,23,12.20
2015,01,18,03,24,13.80
2015,01,18,03,25,10.90
2015,01,18,03,26,12.90
2015,01,18,03,27,9.00
2015,01,18,03,28,6.40
2015,01,18,03,29,9.20
2015,01,18,03,30,11.90
2015,01,18,03,31,16.60
2015,01,18,03,32,9.60
2015,01,18,03,33,6.80
2015,01,18,03,34,4.90
2015,01,18,03,35,10.10
2015,01,18,03,36,12.50
2015,01,18,03,37,9.50
2015,01,18,03,38,9.90
2015,01,18,03,39,6.30
2015,01,18,03,40,11.10
2015,01,18,03,41,9.70
2015,01,18,03,42,12.10
2015,01,18,03,43,12.50
2015,01,18,03,44,7.50
2015,01,18,03,45,5.90
2015,01,18,03,46,6.80
2015,01,18,03,47,7.00
2015,01,18,03,48,7.20
2015,01,18,03,49,2.10
2015,01,18,03,50,0.00
2015,01,18,03,51,1.50
2015,01,18,03,52,0.40
2015,01,18,03,53,0.50
2015,01,18,03,54,0.00
2015,01,18,03,55,0.00
2015,01,18,03,56,2.00
2015,01,18,03,57,1.20
2015,01,18,03,58,1.10
2015,01,18,03,59,2.00
2015,01,18,04,00,0.80
2015,01,18,04,01,0.50
2015,01,18,04,02,3.70
2015,01,18,04,03,12.20
2015,01,18,04,04,9.40
2015,01,18,04,05,7.90
2015,01,18,04,06,7.30
2015,01,18,04,07,7.30
2015,01,18,04,08,8.00
2015,01,18,04,09,13.20
2015,01,18,04,10,9.50
2015,01,18,04,11,8.30
2015,01,18,04,12,9.40
2015,01,18,04,13,7.80
2015,01,18,04,14,9.20
2015,01,18,04,15,6.90
2015,01,18,04,16,5.50
2015,01,18,04,17,5.30
2015,01,18,04,18,6.60
2015,01,18,04,19,4.90
2015,01,18,04,20,4.30
2015,01,18,04,21,1.00
2015,01,18,04,22,1.40
2015,01,18,04,23,1.60
2015,01,18,04,24,0.00
2015,01,18,04,25,4.40
2015,01,18,04,26,4.00
2015,01,18,04,27,2.80
2015,01,18,04,28,0.30
2015,01,18,04,29,0.20
2015,01,18,04,30,0.20
2015,01,18,04,31,2.00
2015,01,18,04,32,3.90
2015,01,18,04,33,4.10
2015,01,18,04,34,7.00
2015,01,18,04,35,7.00
2015,01,18,04,36,8.00
2015,01,18,04,37,6.10
2015,01,18,04,38,2.90
2015,01,18,04,39,1.50
2015,01,18,04,40,3.30
2015,01,18,04,41,4.50
2015,01,18,04,42,4.70
2015,01,18,04,43,4.30
2015,01,18,04,44,6.70
2015,01,18,04,45,6.30
2015,01,18,04,46,1.80
2015,01,18,04,47,3.90
2015,01,18,04,48,1.50
2015,01,18,04,49,1.10
2015,01,18,04,50,1.80
2015,01,18,04,51,1.30
2015,01,18,04,52,2.80
2015,01,18,04,53,0.20
2015,01,18,04,54,4.80
2015,01,18,04,55,2.60
2015,01,18,04,56,1.50
2015,01,18,04,57,2.20
2015,01,18,04,58,4.80
2015,01,18,04,59,2.20
2015,01,18,05,00,1.50
2015,01,18,05,01,2.40
2015,01,18,05,02,2.80
2015,01,18,05,03,0.00
2015,01,18,05,04,2.90
2015,01,18,05,05,2.60
2015,01,18,05,06,1.00
2015,01,18,05,07,0.50
2015,01,18,05,08,2.90
2015,01,18,05,09,4.50
2015,01,18,05,10,1.30
2015,01,18,05,11,1.00
2015,01,18,05,12,2.80
2015,01,18,05,13,4.10
2015,01,18,05,14,4.10
2015,01,18,05,15,3.50
2015,01,18,05,16,6.30
2015,01,18,05,17,12.40
2015,01,18,05,18,9.70
2015,01,18,05,19,3.40
2015,01,18,05,20,7.40
2015,01,18,05,21,9.10
2015,01,18,05,22,11.90
2015,01,18,05,23,9.10
2015,01,18,05,24,8.50
2015,01,18,05,25,11.90
2015,01,18,05,26,8.30
2015,01,18,05,27,8.60
2015,01,18,05,28,7.10
2015,01,18,05,29,5.40
2015,01,18,05,30,7.30
2015,01,18,05,31,7.80
2015,01,18,05,32,10.10
2015,01,18,05,33,8.60
2015,01,18,05,34,7.50
2015,01,18,05,35,9.30
2015,01,18,05,36,13.50
2015,01,18,05,37,11.10
2015,01,18,05,38,8.50
2015,01,18,05,39,8.90
2015,01,18,05,40,13.80
2015,01,18,05,41,15.70
2015,01,18,05,42,15.40
2015,01,18,05,43,20.60
2015,01,18,05,44,16.20
2015,01,18,05,45,22.30
2015,01,18,05,46,20.60
2015,01,18,05,47,21.10
2015,01,18,05,48,17.40
2015,01,18,05,49,9.40
2015,01,18,05,50,14.60
2015,01,18,05,51,14.20
2015,01,18,05,52,8.90
2015,01,18,05,53,13.70
2015,01,18,05,54,17.50
2015,01,18,05,55,13.50
2015,01,18,05,56,22.70
2015,01,18,05,57,17.60
2015,01,18,05,58,18.70
2015,01,18,05,59,18.40
2015,01,18,06,00,17.50
2015,01,18,06,01,17.80
2015,01,18,06,02,24.90
2015,01,18,06,03,26.10
2015,01,18,06,04,29.50
2015,01,18,06,05,36.50
2015,01,18,06,06,21.40
2015,01,18,06,07,33.60
2015,01,18,06,08,33.80
2015,01,18,06,09,38.20
2015,01,18,06,10,35.10
2015,01,18,06,11,30.40
2015,01,18,06,12,37.60
2015,01,18,06,13,36.40
2015,01,18,06,14,37.70
2015,01,18,06,15,31.00
2015,01,18,06,16,36.50
2015,01,18,06,17,38.00
2015,01,18,06,18,35.10
2015,01,18,06,19,34.30
2015,01,18,06,20,34.00
2015,01,18,06,21,33.70
2015,01,18,06,22,37.20
2015,01,18,06,23,37.80
2015,01,18,06,24,25.80
2015,01,18,06,25,41.30
2015,01,18,06,26,30.80
2015,01,18,06,27,36.30
2015,01,18,06,28,35.40
2015,01,18,06,29,33.40
2015,01,18,06,30,34.90
2015,01,18,06,31,37.30
2015,01,18,06,32,39.80
2015,01,18,06,33,33.00
2015,01,18,06,34,35.60
2015,01,18,06,35,33.80
2015,01,18,06,36,39.00
2015,01,18,06,37,39.10
2015,01,18,06,38,30.20
2015,01,18,06,39,23.60
2015,01,18,06,40,37.50
2015,01,18,06,41,35.20
2015,01,18,06,42,38.20
2015,01,18,06,43,36.60
2015,01,18,06,44,35.20
2015,01,18,06,45,46.40
2015,01,18,06,46,32.30
2015,01,18,06,47,33.00
2015,01,18,06,48,27.80
2015,01,18,06,49,36.10
2015,01,18,06,50,30.40
2015,01,18,06,51,27.40
2015,01,18,06,52,24.30
2015,01,18,06,53,29.00
2015,01,18,06,54,27.10
2015,01,18,06,55,29.70
2015,01,18,06,56,26.60
2015,01,18,06,57,20.80
2015,01,18,06,58,26.90
2015,01,18,06,59,23.30
2015,01,18,07,00,41.30
2015,01,18,07,01,34.00
2015,01,18,07,02,30.70
2015,01,18,07,03,41.40
2015,01,18,07,04,35.50
2015,01,18,07,05,25.70
2015,01,18,07,06,43.70
2015,01,18,07,07,42.10
2015,01,18,07,08,42.40
2015,01,18,07,09,34.10
2015,01,18,07,10,39.90
2015,01,18,07,11,48.60
2015,01,18,07,12,55.80
2015,01,18,07,13,48.60
2015,01,18,07,14,45.80
2015,01,18,07,15,41.30
2015,01,18,07,16,39.90
2015,01,18,07,17,39.80
2015,01,18,07,18,32.80
2015,01,18,07,19,36.00
2015,01,18,07,20,36.60
2015,01,18,07,21,28.60
2015,01,18,07,22,38.80
2015,01,18,07,23,34.90
2015,01,18,07,24,44.00
2015,01,18,07,25,42.10
2015,01,18,07,26,43.90
2015,01,18,07,27,36.90
2015,01,18,07,28,32.00
2015,01,18,07,29,40.00
2015,01,18,07,30,44.70
2015,01,18,07,31,46.10
2015,01,18,07,32,42.10
2015,01,18,07,33,43.90
2015,01,18,07,34,40.50
2015,01,18,07,35,44.80
2015,01,18,07,36,40.90
2015,01,18,07,37,39.90
2015,01,18,07,38,34.80
2015,01,18,07,39,31.50
2015,01,18,07,40,37.30
2015,01,18,07,41,35.60
2015,01,18,07,42,39.40
2015,01,18,07,43,38.90
2015,01,18,07,44,29.70
2015,01,18,07,45,39.00
2015,01,18,07,46,30.50
2015,01,18,07,47,31.20
2015,01,18,07,48,23.60
2015,01,18,07,49,31.90
2015,01,18,07,50,31.50
2015,01,18,07,51,34.60
2015,01,18,07,52,35.30
2015,01,18,07,53,26.60
2015,01,18,07,54,27.70
2015,01,18,07,55,28.80
2015,01,18,07,56,32.30
2015,01,18,07,57,28.00
2015,01,18,07,58,32.30
2015,01,18,07,59,32.00
2015,01,18,08,00,32.60
2015,01,18,08,01,29.30
2015,01,18,08,02,33.80
2015,01,18,08,03,32.00
2015,01,18,08,04,32.00
2015,01,18,08,05,31.20
2015,01,18,08,06,41.00
2015,01,18,08,07,39.20
2015,01,18,08,08,27.40
2015,01,18,08,09,40.80
2015,01,18,08,10,27.90
2015,01,18,08,11,36.80
2015,01,18,08,12,28.10
2015,01,18,08,13,34.10
2015,01,18,08,14,39.20
2015,01,18,08,15,43.90
2015,01,18,08,16,30.60
2015,01,18,08,17,33.20
2015,01,18,08,18,38.80
2015,01,18,08,19,39.90
2015,01,18,08,20,32.60
2015,01,18,08,21,46.10
2015,01,18,08,22,39.10
2015,01,18,08,23,35.10
2015,01,18,08,24,32.40
2015,01,18,08,25,37.50
2015,01,18,08,26,32.40
2015,01,18,08,27,33.10
2015,01,18,08,28,33.10
2015,01,18,08,29,34.10
2015,01,18,08,30,36.20
2015,01,18,08,31,25.50
2015,01,18,08,32,32.40
2015,01,18,08,33,33.80
2015,01,18,08,34,27.60
2015,01,18,08,35,26.20
2015,01,18,08,36,28.70
2015,01,18,08,37,25.70
2015,01,18,08,38,29.80
2015,01,18,08,39,29.20
2015,01,18,08,40,16.20
2015,01,18,08,41,31.70
2015,01,18,08,42,20.40
2015,01,18,08,43,26.60
2015,01,18,08,44,27.40
2015,01,18,08,45,29.60
2015,01,18,08,46,30.40
2015,01,18,08,47,20.20
2015,01,18,08,48,30.30
2015,01,18,08,49,27.50
2015,01,18,08,50,30.60
2015,01,18,08,51,29.70
2015,01,18,08,52,21.50
2015,01,18,08,53,34.70
2015,01,18,08,54,30.80
2015,01,18,08,55,19.10
2015,01,18,08,56,21.30
2015,01,18,08,57,33.70
2015,01,18,08,58,28.70
2015,01,18,08,59,30.00
2015,01,18,09,00,32.50
2015,01,18,09,01,23.30
2015,01,18,09,02,30.20
2015,01,18,09,03,24.30
2015,01,18,09,04,29.60
2015,01,18,09,05,29.80
2015,01,18,09,06,24.60
2015,01,18,09,07,19.50
2015,01,18,09,08,20.70
2015,01,18,09,09,23.60
2015,01,18,09,10,20.60
2015,01,18,09,11,19.20
2015,01,18,09,12,28.40
2015,01,18,09,13,29.60
2015,01,18,09,14,26.30
2015,01,18,09,15,25.00
2015,01,18,09,16,40.70
2015,01,18,09,17,28.70
2015,01,18,09,18,21.90
2015,01,18,09,19,21.40
2015,01,18,09,20,23.70
2015,01,18,09,21,32.20
2015,01,18,09,22,32.20
2015,01,18,09,23,31.20
2015,01,18,09,24,27.60
2015,01,18,09,25,22.90
2015,01,18,09,26,28.80
2015,01,18,09,27,26.50
2015,01,18,09,28,26.50
2015,01,18,09,29,16.10
2015,01,18,09,30,13.20
2015,01,18,09,31,17.80
2015,01,18,09,32,12.50
2015,01,18,09,33,16.40
2015,01,18,09,34,18.30
2015,01,18,09,35,21.70
2015,01,18,09,36,22.80
2015,01,18,09,37,21.10
2015,01,18,09,38,24.30
2015,01,18,09,39,16.30
2015,01,18,09,40,23.20
2015,01,18,09,41,26.30
2015,01,18,09,42,24.10
2015,01,18,09,43,17.90
2015,01,18,09,44,19.10
2015,01,18,09,45,17.30
2015,01,18,09,46,28.30
2015,01,18,09,47,35.00
2015,01,18,09,48,27.80
2015,01,18,09,49,14.30
2015,01,18,09,50,28.40
2015,01,18,09,51,24.00
2015,01,18,09,52,22.40
2015,01,18,09,53,24.50
2015,01,18,09,54,29.80
2015,01,18,09,55,20.60
2015,01,18,09,56,20.90
2015,01,18,09,57,24.40
2015,01,18,09,58,19.20
2015,01,18,09,59,23.40
2015,01,18,10,00,24.40
2015,01,18,10,01,21.70
2015,01,18,10,02,25.50
2015,01,18,10,03,22.10
2015,01,18,10,04,36.10
2015,01,18,10,05,27.90
2015,01,18,10,06,21.80
2015,01,18,10,07,20.10
2015,01,18,10,08,31.00
2015,01,18,10,09,23.80
2015,01,18,10,10,27.00
2015,01,18,10,11,32.60
2015,01,18,10,12,26.60
2015,01,18,10,13,17.80
2015,01,18,10,14,21.70
2015,01,18,10,15,28.80
2015,01,18,10,16,31.00
2015,01,18,10,17,14.80
2015,01,18,10,18,22.60
2015,01,18,10,19,25.70
2015,01,18,10,20,16.20
2015,01,18,10,21,22.40
2015,01,18,10,22,25.10
2015,01,18,10,23,23.00
2015,01,18,10,24,22.80
2015,01,18,10,25,21.70
2015,01,18,10,26,24.70
2015,01,18,10,27,25.00
2015,01,18,10,28,22.40
2015,01,18,10,29,20.40
2015,01,18,10,30,20.80
2015,01,18,10,31,22.10
2015,01,18,10,32,15.50
2015,01,18,10,33,18.20
2015,01,18,10,34,14.30
2015,01,18,10,35,12.10
2015,01,18,10,36,10.60
2015,01,18,10,37,15.60
2015,01,18,10,38,13.80
2015,01,18,10,39,18.20
2015,01,18,10,40,7.40
2015,01,18,10,41,16.80
2015,01,18,10,42,14.30
2015,01,18,10,43,16.60
2015,01,18,10,44,13.60
2015,01,18,10,45,19.20
2015,01,18,10,46,14.60
2015,01,18,10,47,19.70
2015,01,18,10,48,25.00
2015,01,18,10,49,17.00
2015,01,18,10,50,15.30
2015,01,18,10,51,17.60
2015,01,18,10,52,19.20
2015,01,18,10,53,20.60
2015,01,18,10,54,16.50
2015,01,18,10,55,14.60
2015,01,18,10,56,7.70
2015,01,18,10,57,11.10
2015,01,18,10,58,10.00
2015,01,18,10,59,9.30
2015,01,18,11,00,10.20
2015,01,18,11,01,17.00
2015,01,18,11,02,10.50
2015,01,18,11,03,9.90
2015,01,18,11,04,9.00
2015,01,18,11,05,8.00
2015,01,18,11,06,6.80
2015,01,18,11,07,2.70
2015,01,18,11,08,8.60
2015,01,18,11,09,8.10
2015,01,18,11,10,4.60
2015,01,18,11,11,5.60
2015,01,18,11,12,9.50
2015,01,18,11,13,4.70
2015,01,18,11,14,5.20
2015,01,18,11,15,8.20
2015,01,18,11,16,8.30
2015,01,18,11,17,3.90
2015,01,18,11,18,5.20
2015,01,18,11,19,7.70
2015,01,18,11,20,6.30
2015,01,18,11,21,8.30
2015,01,18,11,22,14.90
2015,01,18,11,23,15.10
2015,01,18,11,24,12.90
2015,01,18,11,25,21.20
2015,01,18,11,26,14.10
2015,01,18,11,27,20.80
2015,01,18,11,28,17.40
2015,01,18,11,29,17.10
2015,01,18,11,30,15.30
2015,01,18,11,31,11.00
2015,01,18,11,32,19.50
2015,01,18,11,33,15.80
2015,01,18,11,34,22.90
2015,01,18,11,35,25.50
2015,01,18,11,36,11.80
2015,01,18,11,37,13.30
2015,01,18,11,38,14.80
2015,01,18,11,39,21.70
2015,01,18,11,40,20.80
2015,01,18,11,41,20.80
2015,01,18,11,42,18.70
2015,01,18,11,43,16.30
2015,01,18,11,44,17.70
2015,01,18,11,45,16.60
2015,01,18,11,46,15.10
2015,01,18,11,47,17.40
2015,01,18,11,48,18.30
2015,01,18,11,49,12.10
2015,01,18,11,50,15.10
2015,01,18,11,51,19.20
2015,01,18,11,52,16.70
2015,01,18,11,53,12.60
2015,01,18,11,54,8.80
2015,01,18,11,55,9.20
2015,01,18,11,56,5.00
2015,01,18,11,57,8.60
2015,01,18,11,58,8.10
2015,01,18,11,59,15.30
2015,01,18,12,00,12.30
2015,01,18,12,01,14.30
2015,01,18,12,02,12.10
2015,01,18,12,03,9.70
2015,01,18,12,04,14.30
2015,01,18,12,05,11.50
2015,01,18,12,06,12.20
2015,01,18,12,07,6.50
2015,01,18,12,08,11.30
2015,01,18,12,09,7.70
2015,01,18,12,10,13.90
2015,01,18,12,11,8.10
2015,01,18,12,12,12.00
2015,01,18,12,13,15.20
2015,01,18,12,14,18.40
2015,01,18,12,15,14.70
2015,01,18,12,16,16.40
2015,01,18,12,17,15.70
2015,01,18,12,18,22.40
2015,01,18,12,19,22.70
2015,01,18,12,20,23.90
2015,01,18,12,21,26.30
2015,01,18,12,22,20.30
2015,01,18,12,23,20.20
2015,01,18,12,24,17.80
2015,01,18,12,25,19.60
2015,01,18,12,26,19.90
2015,01,18,12,27,12.70
2015,01,18,12,28,22.50
2015,01,18,12,29,24.10
2015,01,18,12,30,19.90
2015,01,18,12,31,21.40
2015,01,18,12,32,20.40
2015,01,18,12,33,19.70
2015,01,18,12,34,30.60
2015,01,18,12,35,24.60
2015,01,18,12,36,24.50
2015,01,18,12,37,14.60
2015,01,18,12,38,13.90
2015,01,18,12,39,17.10
2015,01,18,12,40,10.50
2015,01,18,12,41,19.20
2015,01,18,12,42,21.20
2015,01,18,12,43,26.70
2015,01,18,12,44,21.80
2015,01,18,12,45,18.90
2015,01,18,12,46,20.80
2015,01,18,12,47,10.70
2015,01,18,12,48,15.70
2015,01,18,12,49,11.30
2015,01,18,12,50,13.70
2015,01,18,12,51,14.80
2015,01,18,12,52,12.60
2015,01,18,12,53,17.40
2015,01,18,12,54,14.90
2015,01,18,12,55,20.80
2015,01,18,12,56,12.80
2015,01,18,12,57,15.00
2015,01,18,12,58,20.30
2015,01,18,12,59,21.00
2015,01,18,13,00,20.10
2015,01,18,13,01,22.90
2015,01,18,13,02,24.60
2015,01,18,13,03,18.70
2015,01,18,13,04,24.60
2015,01,18,13,05,16.50
2015,01,18,13,06,14.30
2015,01,18,13,07,21.80
2015,01,18,13,08,17.90
2015,01,18,13,09,15.80
2015,01,18,13,10,16.20
2015,01,18,13,11,18.30
2015,01,18,13,12,19.70
2015,01,18,13,13,12.60
2015,01,18,13,14,19.00
2015,01,18,13,15,19.70
2015,01,18,13,16,12.90
2015,01,18,13,17,18.90
2015,01,18,13,18,15.20
2015,01,18,13,19,23.60
2015,01,18,13,20,25.40
2015,01,18,13,21,25.10
2015,01,18,13,22,21.80
2015,01,18,13,23,15.80
2015,01,18,13,24,17.20
2015,01,18,13,25,19.30
2015,01,18,13,26,23.00
2015,01,18,13,27,23.40
2015,01,18,13,28,20.10
2015,01,18,13,29,20.80
2015,01,18,13,30,25.50
2015,01,18,13,31,22.20
2015,01,18,13,32,20.10
2015,01,18,13,33,22.20
2015,01,18,13,34,17.50
2015,01,18,13,35,19.00
2015,01,18,13,36,17.30
2015,01,18,13,37,16.40
2015,01,18,13,38,16.70
2015,01,18,13,39,17.30
2015,01,18,13,40,18.90
2015,01,18,13,41,16.30
2015,01,18,13,42,9.80
2015,01,18,13,43,15.10
2015,01,18,13,44,14.20
2015,01,18,13,45,11.50
2015,01,18,13,46,11.50
2015,01,18,13,47,13.70
2015,01,18,13,48,15.30
2015,01,18,13,49,16.00
2015,01,18,13,50,24.00
2015,01,18,13,51,16.70
2015,01,18,13,52,12.20
2015,01,18,13,53,13.80
2015,01,18,13,54,18.20
2015,01,18,13,55,23.40
2015,01,18,13,56,18.80
2015,01,18,13,57,16.20
2015,01,18,13,58,26.00
2015,01,18,13,59,17.30
2015,01,18,14,00,20.60
2015,01,18,14,01,17.30
2015,01,18,14,02,20.60
2015,01,18,14,03,19.30
2015,01,18,14,04,16.10
2015,01,18,14,05,24.40
2015,01,18,14,06,18.40
2015,01,18,14,07,18.40
2015,01,18,14,08,11.40
2015,01,18,14,09,17.10
2015,01,18,14,10,15.50
2015,01,18,14,11,18.60
2015,01,18,14,12,19.90
2015,01,18,14,13,19.30
2015,01,18,14,14,17.40
2015,01,18,14,15,13.50
2015,01,18,14,16,20.20
2015,01,18,14,17,16.00
2015,01,18,14,18,19.60
2015,01,18,14,19,12.90
2015,01,18,14,20,15.40
2015,01,18,14,21,18.20
2015,01,18,14,22,18.90
2015,01,18,14,23,17.70
2015,01,18,14,24,17.80
2015,01,18,14,25,15.10
2015,01,18,14,26,15.50
2015,01,18,14,27,13.40
2015,01,18,14,28,15.60
2015,01,18,14,29,20.20
2015,01,18,14,30,17.80
2015,01,18,14,31,22.50
2015,01,18,14,32,18.10
2015,01,18,14,33,24.10
2015,01,18,14,34,18.90
2015,01,18,14,35,17.30
2015,01,18,14,36,15.00
2015,01,18,14,37,15.20
2015,01,18,14,38,18.10
2015,01,18,14,39,14.00
2015,01,18,14,40,14.40
2015,01,18,14,41,15.80
2015,01,18,14,42,20.80
2015,01,18,14,43,17.60
2015,01,18,14,44,13.70
2015,01,18,14,45,18.20
2015,01,18,14,46,16.80
2015,01,18,14,47,8.50
2015,01,18,14,48,14.80
2015,01,18,14,49,14.60
2015,01,18,14,50,19.50
2015,01,18,14,51,17.40
2015,01,18,14,52,14.00
2015,01,18,14,53,24.40
2015,01,18,14,54,22.80
2015,01,18,14,55,19.60
2015,01,18,14,56,15.50
2015,01,18,14,57,24.90
2015,01,18,14,58,12.70
2015,01,18,14,59,26.00
2015,01,18,15,00,27.40
2015,01,18,15,01,24.40
2015,01,18,15,02,21.20
2015,01,18,15,03,22.70
2015,01,18,15,04,16.30
2015,01,18,15,05,18.70
2015,01,18,15,06,12.70
2015,01,18,15,07,22.20
2015,01,18,15,08,14.80
2015,01,18,15,09,16.40
2015,01,18,15,10,14.30
2015,01,18,15,11,13.00
2015,01,18,15,12,17.40
2015,01,18,15,13,13.30
2015,01,18,15,14,19.50
2015,01,18,15,15,8.90
2015,01,18,15,16,8.70
2015,01,18,15,17,9.00
2015,01,18,15,18,10.20
2015,01,18,15,19,17.30
2015,01,18,15,20,13.20
2015,01,18,15,21,5.70
2015,01,18,15,22,12.00
2015,01,18,15,23,20.00
2015,01,18,15,24,17.90
2015,01,18,15,25,10.50
2015,01,18,15,26,6.30
2015,01,18,15,27,10.30
2015,01,18,15,28,12.20
2015,01,18,15,29,11.10
2015,01,18,15,30,8.60
2015,01,18,15,31,13.70
2015,01,18,15,32,12.40
2015,01,18,15,33,8.20
2015,01,18,15,34,11.20
2015,01,18,15,35,13.40
2015,01,18,15,36,8.20
2015,01,18,15,37,11.20
2015,01,18,15,38,11.00
2015,01,18,15,39,9.70
2015,01,18,15,40,14.60
2015,01,18,15,41,7.80
2015,01,18,15,42,15.10
2015,01,18,15,43,8.30
2015,01,18,15,44,7.00
2015,01,18,15,45,10.10
2015,01,18,15,46,10.10
2015,01,18,15,47,16.00
2015,01,18,15,48,13.20
2015,01,18,15,49,15.00
2015,01,18,15,50,11.00
2015,01,18,15,51,7.80
2015,01,18,15,52,15.70
2015,01,18,15,53,12.70
2015,01,18,15,54,15.70
2015,01,18,15,55,13.10
2015,01,18,15,56,20.20
2015,01,18,15,57,23.80
2015,01,18,15,58,21.10
2015,01,18,15,59,21.90
2015,01,18,16,00,25.30
2015,01,18,16,01,27.90
2015,01,18,16,02,20.00
2015,01,18,16,03,21.10
2015,01,18,16,04,20.30
2015,01,18,16,05,28.00
2015,01,18,16,06,18.00
2015,01,18,16,07,15.20
2015,01,18,16,08,17.30
2015,01,18,16,09,14.80
2015,01,18,16,10,16.80
2015,01,18,16,11,16.70
2015,01,18,16,12,18.00
2015,01,18,16,13,20.10
2015,01,18,16,14,13.60
2015,01,18,16,15,17.60
2015,01,18,16,16,19.40
2015,01,18,16,17,21.30
2015,01,18,16,18,22.00
2015,01,18,16,19,14.50
2015,01,18,16,20,15.00
2015,01,18,16,21,13.20
2015,01,18,16,22,14.60
2015,01,18,16,23,15.50
2015,01,18,16,24,11.40
2015,01,18,16,25,11.50
2015,01,18,16,26,13.00
2015,01,18,16,27,17.10
2015,01,18,16,28,14.00
2015,01,18,16,29,18.30
2015,01,18,16,30,16.00
2015,01,18,16,31,14.00
2015,01,18,16,32,21.30
2015,01,18,16,33,22.10
2015,01,18,16,34,22.90
2015,01,18,16,35,23.50
2015,01,18,16,36,20.30
2015,01,18,16,37,22.90
2015,01,18,16,38,20.70
2015,01,18,16,39,24.10
2015,01,18,16,40,24.20
2015,01,18,16,41,18.80
2015,01,18,16,42,21.50
2015,01,18,16,43,24.10
2015,01,18,16,44,21.40
2015,01,18,16,45,16.70
2015,01,18,16,46,14.30
2015,01,18,16,47,18.40
2015,01,18,16,48,17.80
2015,01,18,16,49,17.70
2015,01,18,16,50,16.50
2015,01,18,16,51,14.50
2015,01,18,16,52,14.70
2015,01,18,16,53,13.50
2015,01,18,16,54,9.90
2015,01,18,16,55,13.40
2015,01,18,16,56,11.00
2015,01,18,16,57,8.10
2015,01,18,16,58,12.40
2015,01,18,16,59,15.70
2015,01,18,17,00,12.60
2015,01,18,17,01,12.00
2015,01,18,17,02,14.30
2015,01,18,17,03,11.60
2015,01,18,17,04,16.10
2015,01,18,17,05,12.70
2015,01,18,17,06,9.40
2015,01,18,17,07,10.80
2015,01,18,17,08,12.70
2015,01,18,17,09,17.60
2015,01,18,17,10,13.80
2015,01,18,17,11,10.70
2015,01,18,17,12,17.60
2015,01,18,17,13,21.40
2015,01,18,17,14,16.70
2015,01,18,17,15,14.40
2015,01,18,17,16,13.40
2015,01,18,17,17,18.80
2015,01,18,17,18,13.00
2015,01,18,17,19,9.80
2015,01,18,17,20,12.10
2015,01,18,17,21,10.80
2015,01,18,17,22,11.60
2015,01,18,17,23,11.70
2015,01,18,17,24,10.10
2015,01,18,17,25,8.10
2015,01,18,17,26,8.00
2015,01,18,17,27,7.00
2015,01,18,17,28,13.50
2015,01,18,17,29,10.50
2015,01,18,17,30,7.90
2015,01,18,17,31,9.90